World > North America > United States > New York   Village of Northville, NY

Hourly Northville, NY Regional Weather

Feedback E-mail the Weather

Latest News

Northville, NY Weather Maps

°F °C°F °C
Northville Weather Map
UTC Time: 5/26/2022, 20:04
Your Time:

Northville, NY Regional Weather

Expires:202205262000;;616820
ASUS41 KALY 261910
RWRALY

NEW YORK STATE HOURLY WEATHER ROUNDUP
NATIONAL WEATHER SERVICE ALBANY NY
300 PM EDT THU MAY 26 2022

NOTE: "FAIR" INDICATES FEW OR NO CLOUDS BELOW 12,000 FEET WITH NO
SIGNIFICANT WEATHER AND/OR NO OBSTRUCTIONS TO VISIBILITY.


NYZ032-033-038>043-046>054-057>066-NYZ062>081-082-084-262000-
EAST

  
CITY           SKY/WX    TMP DP  RH WIND       PRES   REMARKS
ALBANY         PTSUNNY   73  51  46 S23G30    30.10F                  
GLENS FALLS    PTSUNNY   73  49  42 S17G26    30.08F                  
POUGHKEEPSIE   CLOUDY    73  53  49 S9G16     30.16F                  
NEWBURGH       PTSUNNY   72  52  49 SW13G20   30.19F                  
MONTGOMERY     CLOUDY    70  54  56 S12G18    30.16F                  
WHITE PLAINS   MOSUNNY   69  53  56 S13G21    30.21F                  
ISLIP          PTSUNNY   67  55  65 S12       30.25F                  
NEW YORK CITY  PTSUNNY   69  51  52 S15G21    30.22F                  
CENTRAL PARK   MOSUNNY   69  54  58 SE10G18   30.25F                  
$$


SKY/WX - Weather  TMP - Temperature  DP - Dew Point  RH - Humidity
WIND - Wind Direction/Speed PRES - Barometric Pressure VSB - Visibility
WCI - Wind Chill Index E13G22 Wind - East Wind 13 mph/Gusts of 22 mph

Trending Headlines

Northville Radar Loop



Northville Quick Facts


National Two Day Weather Forecast


E-mail the Northville Weather Forecast

Voice your opinion or tell us about page issues...